Skip Page Navigation
NASA JPL Caltech
NASA Logo - Jet Propulsion Laboratory + View the NASA Portal
+ Center for Near-Earth Object Studies
JPL Home Earth Solar System Stars & Galaxies Technology
JPL Solar System Dynamics
BODIES ORBITS EPHEMERIDES TOOLS PHYSICAL DATA DISCOVERY FAQ SITE MAP
IMPORTANT: The SSD Announcement email list is now available. Major changes are coming in the near future, including possible hostname and/or URL changes. To be notified of such changes, subscribe to this email list.

Please visit this page for more details.


JPL Small-Body Database Browser
Search: [ help ]  
193096 (2000 GD113)
Classification: Main-belt Asteroid          SPK-ID: 2193096
Ephemeris | Orbit Diagram | Orbital Elements | Mission Design | Physical Parameters | Discovery Circumstances ]

[ show orbit diagram ]
Orbital Elements at Epoch 2458600.5 (2019-Apr-27.0) TDB
Reference: JPL 11 (heliocentric ecliptic J2000)
 Element Value Uncertainty (1-sigma)   Units 
e .2087150369310738 4.6417e-08  
a 2.309523133969263 1.493e-08 au
q 1.827490927769699 1.0273e-07 au
i 7.738317958269211 8.0251e-06 deg
node 27.58162120396613 3.7583e-05 deg
peri 246.7777347585319 4.3369e-05 deg
M 101.4453544873879 1.8858e-05 deg
tp 2458239.246914261373
(2018-Apr-30.74691426)
6.7447e-05 TDB
period 1281.981925373176
3.51
1.2431e-05
3.403e-08
d
yr
n .2808151915989038 2.7231e-09 deg/d
Q 2.791555340168827 1.8047e-08 au
  Orbit Determination Parameters
   # obs. used (total)      169  
   data-arc span      6699 days (18.34 yr)  
   first obs. used      2000-04-05  
   last obs. used      2018-08-08  
   planetary ephem.      DE431  
   SB-pert. ephem.      SB431-N16  
   condition code      0  
   norm. resid. RMS      .63039  
   source      ORB  
   producer      Otto Matic  
   solution date      2019-Jul-13 13:44:08  

Additional Information
 Earth MOID = .827867 au 
 Jupiter MOID = 2.36037 au 
 T_jup = 3.544 
[ show covariance matrix ]

Ephemeris | Orbit Diagram | Orbital Elements | Mission Design | Physical Parameters | Discovery Circumstances ]

Physical Parameter Table
Parameter Symbol Value Units Sigma Reference Notes
absolute magnitude H 17.3   n/a MPO454339  

193096 (2000 GD113)          Discovered 2000-Apr-05 by LINEAR at Socorro
Reference: 20081113/Numbers.arcLast Updated: 2008-11-17
Ephemeris | Orbit Diagram | Orbital Elements | Mission Design | Physical Parameters | Discovery Circumstances ]
ABOUT SSD CREDITS/AWARDS PRIVACY/COPYRIGHT GLOSSARY LINKS
FirstGov
(server date/time)  
NASA Home Page
Site Manager:   Ryan S. Park
Webmaster  Alan B. Chamberlin